Time,TemperatureF,DewpointF,PressureIn,WindDirection,WindDirectionDegrees,WindSpeedMPH,WindSpeedGustMPH,Humidity,HourlyPrecipIn,Conditions,Clouds,dailyrainin,SoftwareType,DateUTC
2013-04-22 00:02:00,56.0,38.0,30.14,SSE,152,5.0,8.0,51,0.00,,,0.00,,2013-04-22 05:02:00,
2013-04-22 00:12:00,56.0,38.0,30.14,SSE,164,3.0,6.0,51,0.00,,,0.00,,2013-04-22 05:12:00,
2013-04-22 00:22:00,56.0,38.0,30.14,SSE,164,3.0,6.0,51,0.00,,,0.00,,2013-04-22 05:22:00,
2013-04-22 00:32:00,56.0,39.0,30.14,SSE,161,4.0,7.0,52,0.00,,,0.00,,2013-04-22 05:32:00,
2013-04-22 00:42:00,56.0,39.0,30.14,SSE,161,4.0,7.0,52,0.00,,,0.00,,2013-04-22 05:42:00,
2013-04-22 00:52:00,56.0,39.0,30.14,South,180,3.0,6.0,52,0.00,,,0.00,,2013-04-22 05:52:00,
2013-04-22 01:02:00,56.0,38.0,30.13,South,172,5.0,8.0,51,0.00,,,0.00,,2013-04-22 06:02:00,
2013-04-22 01:12:00,56.0,38.0,30.13,South,172,5.0,8.0,51,0.00,,,0.00,,2013-04-22 06:12:00,
2013-04-22 01:21:00,56.0,38.0,30.14,South,171,7.0,7.0,50,0.00,,,0.00,,2013-04-22 06:21:00,
2013-04-22 01:32:00,55.0,37.0,30.12,SSE,147,6.0,9.0,51,0.00,,,0.00,,2013-04-22 06:32:00,
2013-04-22 01:42:00,55.0,37.0,30.12,SSE,147,6.0,9.0,51,0.00,,,0.00,,2013-04-22 06:42:00,
2013-04-22 01:52:00,55.0,37.0,30.12,SSE,150,6.0,10.0,51,0.00,,,0.00,,2013-04-22 06:52:00,
2013-04-22 02:01:00,55.0,37.0,30.13,SSE,163,4.0,10.0,51,0.00,,,0.00,,2013-04-22 07:01:00,
2013-04-22 02:11:00,55.0,37.0,30.13,SSE,163,4.0,10.0,51,0.00,,,0.00,,2013-04-22 07:11:00,
2013-04-22 02:21:00,55.0,37.0,30.12,SE,139,6.0,9.0,51,0.00,,,0.00,,2013-04-22 07:21:00,
2013-04-22 02:32:00,54.0,37.0,30.12,South,173,6.0,7.0,52,0.00,,,0.00,,2013-04-22 07:32:00,
2013-04-22 02:42:00,54.0,37.0,30.12,South,173,6.0,7.0,52,0.00,,,0.00,,2013-04-22 07:42:00,
2013-04-22 02:52:00,54.0,37.0,30.11,SSE,148,4.0,9.0,52,0.00,,,0.00,,2013-04-22 07:52:00,
2013-04-22 03:01:00,54.0,37.0,30.11,SSE,150,6.0,7.0,52,0.00,,,0.00,,2013-04-22 08:01:00,
2013-04-22 03:11:00,53.0,36.0,30.11,SSE,157,3.0,7.0,53,0.00,,,0.00,,2013-04-22 08:11:00,
2013-04-22 03:22:00,53.0,36.0,30.11,SSE,157,3.0,7.0,53,0.00,,,0.00,,2013-04-22 08:22:00,
2013-04-22 03:32:00,53.0,37.0,30.11,SSE,153,8.0,8.0,54,0.00,,,0.00,,2013-04-22 08:32:00,
2013-04-22 03:42:00,53.0,37.0,30.11,SSE,153,8.0,8.0,54,0.00,,,0.00,,2013-04-22 08:42:00,
2013-04-22 03:52:00,53.0,37.0,30.11,SSE,153,8.0,8.0,54,0.00,,,0.00,,2013-04-22 08:52:00,
2013-04-22 04:01:00,53.0,37.0,30.11,SSE,153,8.0,8.0,54,0.00,,,0.00,,2013-04-22 09:01:00,
2013-04-22 04:11:00,53.0,37.0,30.11,SSE,153,8.0,8.0,54,0.00,,,0.00,,2013-04-22 09:11:00,
2013-04-22 04:33:00,51.0,36.0,30.10,South,177,3.0,7.0,57,0.00,,,0.00,,2013-04-22 09:33:00,
2013-04-22 04:42:00,51.0,36.0,30.10,South,177,3.0,7.0,57,0.00,,,0.00,,2013-04-22 09:42:00,
2013-04-22 04:52:00,51.0,37.0,30.10,South,176,3.0,8.0,58,0.00,,,0.00,,2013-04-22 09:52:00,
2013-04-22 05:03:00,51.0,37.0,30.11,SSE,151,3.0,7.0,59,0.00,,,0.00,,2013-04-22 10:03:00,
2013-04-22 05:12:00,51.0,37.0,30.11,SSE,151,3.0,7.0,59,0.00,,,0.00,,2013-04-22 10:12:00,
2013-04-22 05:22:00,50.0,36.0,30.11,SSE,161,3.0,5.0,59,0.00,,,0.00,,2013-04-22 10:22:00,
2013-04-22 05:32:00,50.0,37.0,30.10,SSE,147,2.0,5.0,60,0.00,,,0.00,,2013-04-22 10:32:00,
2013-04-22 05:42:00,50.0,37.0,30.10,SSE,147,2.0,5.0,60,0.00,,,0.00,,2013-04-22 10:42:00,
2013-04-22 05:52:00,49.0,36.0,30.10,SSE,151,3.0,4.0,61,0.00,,,0.00,,2013-04-22 10:52:00,
2013-04-22 06:02:00,49.0,36.0,30.11,SSE,154,1.0,3.0,61,0.00,,,0.00,,2013-04-22 11:02:00,
2013-04-22 06:12:00,49.0,37.0,30.11,SSE,154,0.0,3.0,62,0.00,,,0.00,,2013-04-22 11:12:00,
2013-04-22 06:22:00,49.0,37.0,30.11,SSE,154,0.0,3.0,62,0.00,,,0.00,,2013-04-22 11:22:00,
2013-04-22 06:32:00,49.0,37.0,30.09,SSE,156,1.0,4.0,62,0.00,,,0.00,,2013-04-22 11:32:00,
2013-04-22 06:42:00,49.0,37.0,30.09,SSE,156,1.0,4.0,62,0.00,,,0.00,,2013-04-22 11:42:00,
2013-04-22 06:52:00,49.0,37.0,30.10,SSE,161,5.0,5.0,63,0.00,,,0.00,,2013-04-22 11:52:00,
2013-04-22 07:01:00,49.0,37.0,30.10,SSE,157,1.0,4.0,64,0.00,,,0.00,,2013-04-22 12:01:00,
2013-04-22 07:12:00,49.0,37.0,30.09,SSE,154,3.0,5.0,63,0.00,,,0.00,,2013-04-22 12:12:00,
2013-04-22 07:21:00,49.0,37.0,30.09,SSE,154,3.0,5.0,63,0.00,,,0.00,,2013-04-22 12:21:00,
2013-04-22 07:31:00,50.0,38.0,30.10,SSE,151,3.0,5.0,63,0.00,,,0.00,,2013-04-22 12:31:00,
2013-04-22 07:42:00,50.0,38.0,30.10,SSE,151,3.0,5.0,63,0.00,,,0.00,,2013-04-22 12:42:00,
2013-04-22 07:52:00,52.0,39.0,30.10,SSE,149,3.0,6.0,62,0.00,,,0.00,,2013-04-22 12:52:00,
2013-04-22 08:01:00,52.0,39.0,30.10,SSE,155,3.0,5.0,60,0.00,,,0.00,,2013-04-22 13:01:00,
2013-04-22 08:11:00,52.0,39.0,30.10,SSE,155,3.0,5.0,60,0.00,,,0.00,,2013-04-22 13:11:00,
2013-04-22 08:22:00,52.0,39.0,30.10,South,170,4.0,8.0,60,0.00,,,0.00,,2013-04-22 13:22:00,
2013-04-22 08:31:00,54.0,40.0,30.10,South,179,4.0,6.0,59,0.00,,,0.00,,2013-04-22 13:31:00,
2013-04-22 08:41:00,54.0,40.0,30.10,South,179,4.0,6.0,59,0.00,,,0.00,,2013-04-22 13:41:00,
2013-04-22 08:53:00,55.0,40.0,30.11,South,176,4.0,9.0,56,0.00,,,0.00,,2013-04-22 13:53:00,
2013-04-22 09:02:00,58.0,40.0,30.10,SW,215,3.0,9.0,51,0.00,,,0.00,,2013-04-22 14:02:00,
2013-04-22 09:11:00,57.0,39.0,30.09,South,190,7.0,8.0,51,0.00,,,0.00,,2013-04-22 14:11:00,
2013-04-22 09:21:00,57.0,39.0,30.09,South,190,7.0,8.0,51,0.00,,,0.00,,2013-04-22 14:21:00,
2013-04-22 09:33:00,59.0,40.0,30.11,SSW,199,9.0,13.0,49,0.00,,,0.00,,2013-04-22 14:33:00,
2013-04-22 09:42:00,59.0,40.0,30.11,SSW,199,9.0,13.0,49,0.00,,,0.00,,2013-04-22 14:42:00,
2013-04-22 09:52:00,58.0,39.0,30.10,SSW,204,6.0,10.0,49,0.00,,,0.00,,2013-04-22 14:52:00,
2013-04-22 10:01:00,59.0,40.0,30.10,South,187,11.0,13.0,49,0.00,,,0.00,,2013-04-22 15:01:00,
2013-04-22 10:11:00,59.0,40.0,30.10,South,187,11.0,13.0,49,0.00,,,0.00,,2013-04-22 15:11:00,
2013-04-22 10:22:00,61.0,40.0,30.09,SSW,200,5.0,8.0,46,0.00,,,0.00,,2013-04-22 15:22:00,
2013-04-22 10:33:00,62.0,42.0,30.10,South,184,5.0,8.0,47,0.00,,,0.00,,2013-04-22 15:33:00,
2013-04-22 10:42:00,62.0,42.0,30.10,South,184,5.0,8.0,47,0.00,,,0.00,,2013-04-22 15:42:00,
2013-04-22 10:53:00,62.0,40.0,30.09,South,169,2.0,7.0,45,0.00,,,0.00,,2013-04-22 15:53:00,
2013-04-22 11:02:00,63.0,40.0,30.07,SSW,195,7.0,12.0,43,0.00,,,0.00,,2013-04-22 16:02:00,
2013-04-22 11:12:00,63.0,40.0,30.07,SSW,195,7.0,12.0,43,0.00,,,0.00,,2013-04-22 16:12:00,
2013-04-22 11:23:00,65.0,41.0,30.09,SSE,162,4.0,8.0,41,0.00,,,0.00,,2013-04-22 16:23:00,
2013-04-22 11:33:00,66.0,40.0,30.09,SW,215,11.0,13.0,39,0.00,,,0.00,,2013-04-22 16:33:00,
2013-04-22 11:42:00,66.0,40.0,30.09,SW,215,11.0,13.0,39,0.00,,,0.00,,2013-04-22 16:42:00,
2013-04-22 11:52:00,65.0,39.0,30.09,South,186,8.0,15.0,39,0.00,,,0.00,,2013-04-22 16:52:00,
2013-04-22 12:02:00,65.0,41.0,30.06,South,188,8.0,14.0,42,0.00,,,0.00,,2013-04-22 17:02:00,
2013-04-22 12:12:00,65.0,41.0,30.06,South,188,8.0,14.0,42,0.00,,,0.00,,2013-04-22 17:12:00,
2013-04-22 12:22:00,64.0,41.0,30.07,SE,146,7.0,8.0,43,0.00,,,0.00,,2013-04-22 17:22:00,
2013-04-22 12:31:00,64.0,42.0,30.05,SSE,167,4.0,6.0,45,0.00,,,0.00,,2013-04-22 17:31:00,
2013-04-22 12:42:00,64.0,42.0,30.05,SSE,167,4.0,6.0,45,0.00,,,0.00,,2013-04-22 17:42:00,
2013-04-22 12:52:00,63.0,41.0,30.06,SSE,151,5.0,8.0,44,0.00,,,0.00,,2013-04-22 17:52:00,
2013-04-22 13:01:00,63.0,40.0,30.03,SSW,193,8.0,12.0,42,0.00,,,0.00,,2013-04-22 18:01:00,
2013-04-22 13:12:00,63.0,40.0,30.03,SSW,193,8.0,12.0,42,0.00,,,0.00,,2013-04-22 18:12:00,
2013-04-22 13:21:00,63.0,41.0,30.03,South,176,7.0,12.0,44,0.00,,,0.00,,2013-04-22 18:21:00,
2013-04-22 13:32:00,64.0,41.0,30.01,South,176,7.0,12.0,43,0.00,,,0.00,,2013-04-22 18:32:00,
2013-04-22 13:42:00,64.0,41.0,30.01,South,176,7.0,12.0,43,0.00,,,0.00,,2013-04-22 18:42:00,
2013-04-22 13:52:00,63.0,40.0,30.01,SSE,148,8.0,13.0,43,0.00,,,0.00,,2013-04-22 18:52:00,
2013-04-22 14:01:00,62.0,41.0,30.00,SSE,156,4.0,6.0,46,0.00,,,0.00,,2013-04-22 19:01:00,
2013-04-22 14:12:00,62.0,41.0,30.00,SSE,156,4.0,6.0,46,0.00,,,0.00,,2013-04-22 19:12:00,
2013-04-22 14:21:00,63.0,41.0,30.00,South,173,8.0,9.0,44,0.00,,,0.00,,2013-04-22 19:21:00,
2013-04-22 14:32:00,63.0,42.0,29.99,SSE,166,2.0,4.0,47,0.00,,,0.00,,2013-04-22 19:32:00,
2013-04-22 14:42:00,63.0,42.0,29.99,SSE,166,2.0,4.0,47,0.00,,,0.00,,2013-04-22 19:42:00,
2013-04-22 14:52:00,62.0,41.0,29.98,SSE,163,6.0,7.0,46,0.00,,,0.00,,2013-04-22 19:52:00,
2013-04-22 15:02:00,62.0,41.0,29.98,SSE,159,5.0,6.0,46,0.00,,,0.00,,2013-04-22 20:02:00,
2013-04-22 15:11:00,62.0,41.0,29.98,SSE,159,5.0,6.0,46,0.00,,,0.00,,2013-04-22 20:11:00,
2013-04-22 15:22:00,63.0,41.0,29.97,SSE,147,4.0,7.0,45,0.00,,,0.00,,2013-04-22 20:22:00,
2013-04-22 15:32:00,63.0,42.0,29.96,SSE,147,4.0,5.0,46,0.00,,,0.00,,2013-04-22 20:32:00,
2013-04-22 15:42:00,63.0,42.0,29.96,SSE,147,4.0,5.0,46,0.00,,,0.00,,2013-04-22 20:42:00,
2013-04-22 15:52:00,63.0,42.0,29.95,SE,131,7.0,10.0,46,0.00,,,0.00,,2013-04-22 20:52:00,
2013-04-22 16:02:00,63.0,42.0,29.95,SSE,155,5.0,8.0,46,0.00,,,0.00,,2013-04-22 21:02:00,
2013-04-22 16:11:00,64.0,42.0,29.96,South,169,6.0,11.0,45,0.00,,,0.00,,2013-04-22 21:11:00,
2013-04-22 16:21:00,64.0,42.0,29.96,South,169,6.0,11.0,45,0.00,,,0.00,,2013-04-22 21:21:00,
2013-04-22 16:32:00,64.0,41.0,29.93,South,171,7.0,11.0,43,0.00,,,0.00,,2013-04-22 21:32:00,
2013-04-22 16:42:00,64.0,41.0,29.93,South,171,7.0,11.0,43,0.00,,,0.00,,2013-04-22 21:42:00,
2013-04-22 16:53:00,63.0,41.0,29.93,SSE,147,7.0,8.0,44,0.00,,,0.00,,2013-04-22 21:53:00,
2013-04-22 17:02:00,63.0,41.0,29.93,South,188,6.0,8.0,45,0.00,,,0.00,,2013-04-22 22:02:00,
2013-04-22 17:12:00,63.0,41.0,29.93,South,188,6.0,8.0,45,0.00,,,0.00,,2013-04-22 22:12:00,
2013-04-22 17:22:00,62.0,40.0,29.96,South,180,5.0,7.0,44,0.00,,,0.00,,2013-04-22 22:22:00,
2013-04-22 17:33:00,61.0,43.0,29.95,SW,214,9.0,12.0,51,0.01,,,0.01,,2013-04-22 22:33:00,
2013-04-22 17:42:00,61.0,43.0,29.95,SW,214,9.0,12.0,51,0.01,,,0.01,,2013-04-22 22:42:00,
2013-04-22 17:52:00,57.0,44.0,29.96,SSE,154,4.0,6.0,62,0.03,,,0.03,,2013-04-22 22:52:00,
2013-04-22 18:02:00,57.0,44.0,29.93,ESE,112,2.0,5.0,61,0.03,,,0.03,,2013-04-22 23:02:00,
2013-04-22 18:11:00,56.0,42.0,29.95,ESE,109,3.0,4.0,59,0.03,,,0.03,,2013-04-22 23:11:00,
2013-04-22 18:21:00,56.0,42.0,29.95,ESE,109,3.0,4.0,59,0.03,,,0.03,,2013-04-22 23:21:00,
2013-04-22 18:32:00,58.0,46.0,29.96,NNE,27,2.0,2.0,64,0.02,,,0.03,,2013-04-22 23:32:00,
2013-04-22 18:42:00,58.0,46.0,29.96,NNE,27,2.0,2.0,64,0.02,,,0.03,,2013-04-22 23:42:00,
2013-04-22 18:52:00,59.0,45.0,29.96,North,0,3.0,5.0,59,0.00,,,0.03,,2013-04-22 23:52:00,
2013-04-22 19:02:00,56.0,45.0,29.98,North,9,6.0,6.0,66,0.00,,,0.03,,2013-04-23 00:02:00,
2013-04-22 19:12:00,56.0,45.0,29.98,North,9,6.0,6.0,66,0.00,,,0.03,,2013-04-23 00:12:00,
2013-04-22 19:21:00,54.0,45.0,29.95,North,4,5.0,7.0,71,0.00,,,0.03,,2013-04-23 00:21:00,
2013-04-22 19:31:00,54.0,45.0,29.97,North,5,3.0,7.0,72,0.00,,,0.03,,2013-04-23 00:31:00,
2013-04-22 19:42:00,54.0,45.0,29.97,North,5,3.0,7.0,72,0.00,,,0.03,,2013-04-23 00:42:00,
2013-04-22 19:52:00,53.0,45.0,29.96,North,0,6.0,9.0,73,0.01,,,0.04,,2013-04-23 00:52:00,
2013-04-22 20:01:00,53.0,45.0,29.97,NNE,12,1.0,4.0,74,0.01,,,0.04,,2013-04-23 01:01:00,
2013-04-22 20:11:00,53.0,46.0,29.98,NW,324,3.0,6.0,78,0.01,,,0.04,,2013-04-23 01:11:00,
2013-04-22 20:21:00,53.0,46.0,29.98,NW,324,3.0,6.0,78,0.01,,,0.04,,2013-04-23 01:21:00,
2013-04-22 20:32:00,52.0,46.0,29.98,North,6,7.0,9.0,80,0.01,,,0.04,,2013-04-23 01:32:00,
2013-04-22 20:42:00,52.0,46.0,29.98,North,6,7.0,9.0,80,0.01,,,0.04,,2013-04-23 01:42:00,
2013-04-22 20:52:00,52.0,47.0,30.00,NNW,344,3.0,7.0,82,0.00,,,0.04,,2013-04-23 01:52:00,
2013-04-22 21:01:00,52.0,47.0,29.99,North,357,6.0,12.0,83,0.00,,,0.04,,2013-04-23 02:01:00,
2013-04-22 21:12:00,52.0,47.0,29.99,North,357,6.0,12.0,83,0.00,,,0.04,,2013-04-23 02:12:00,
2013-04-22 21:21:00,52.0,47.0,29.99,North,355,5.0,9.0,83,0.00,,,0.04,,2013-04-23 02:21:00,
2013-04-22 21:32:00,52.0,47.0,30.00,North,0,2.0,7.0,84,0.00,,,0.04,,2013-04-23 02:32:00,
2013-04-22 21:42:00,52.0,47.0,30.00,North,0,2.0,7.0,84,0.00,,,0.04,,2013-04-23 02:42:00,
2013-04-22 21:52:00,52.0,47.0,30.00,NNW,338,1.0,7.0,84,0.00,,,0.04,,2013-04-23 02:52:00,
2013-04-22 22:01:00,52.0,47.0,30.01,WNW,297,3.0,5.0,84,0.00,,,0.04,,2013-04-23 03:01:00,
2013-04-22 22:11:00,52.0,47.0,30.01,WNW,297,3.0,5.0,84,0.00,,,0.04,,2013-04-23 03:11:00,
2013-04-22 22:21:00,52.0,48.0,30.01,North,0,4.0,4.0,85,0.00,,,0.04,,2013-04-23 03:21:00,
2013-04-22 22:33:00,52.0,48.0,30.03,NNW,340,2.0,5.0,85,0.00,,,0.04,,2013-04-23 03:33:00,
2013-04-22 22:43:00,52.0,48.0,30.03,NNW,340,2.0,5.0,85,0.00,,,0.04,,2013-04-23 03:43:00,
2013-04-22 22:53:00,52.0,48.0,30.01,WNW,303,3.0,6.0,86,0.00,,,0.04,,2013-04-23 03:53:00,
2013-04-22 23:03:00,52.0,48.0,30.01,North,358,6.0,8.0,87,0.00,,,0.04,,2013-04-23 04:03:00,
2013-04-22 23:12:00,52.0,48.0,30.01,North,358,6.0,8.0,87,0.00,,,0.04,,2013-04-23 04:12:00,
2013-04-22 23:23:00,51.0,47.0,30.03,NW,314,8.0,15.0,86,0.00,,,0.04,,2013-04-23 04:23:00,
2013-04-22 23:33:00,47.0,43.0,30.03,West,276,7.0,16.0,85,0.00,,,0.04,,2013-04-23 04:33:00,
2013-04-22 23:43:00,47.0,43.0,30.03,West,276,7.0,16.0,85,0.00,,,0.04,,2013-04-23 04:43:00,
2013-04-22 23:53:00,46.0,42.0,30.02,North,358,2.0,7.0,86,0.00,,,0.04,,2013-04-23 04:53:00,